Weather History for Stafford, VA

Change the Weather History Date:

Monday, November 5, 2012

  Actual Average (KNYG) Record (KNYG)
Temperature  
Mean Temperature 40 °F -  
Max Temperature 58 °F 58 °F 78 °F (2003)
Min Temperature 29 °F 39 °F 30 °F (1998)
Degree Days  
Heating Degree Days 25    
Moisture  
Dew Point 15 °F    
Average Humidity 50    
Maximum Humidity 93    
Minimum Humidity 5    
Precipitation  
Precipitation 0.00 in - - ()
Sea Level Pressure  
Sea Level Pressure 30.14 in    
Wind  
Wind Speed 5 mph (NNW)    
Max Wind Speed 17 mph    
Max Gust Speed 26 mph    
Visibility 10 miles    
Events      
Averages and records for this station are not official NWS values.
T = Trace of Precipitation, MM = Missing Value Source: NWS Daily Summary

Daily Weather History Graph

Daily Weather History Graph

Search for Another Location

Airport:

Trip Planner

Search our weather history database for the weather conditions in past years. The results will help you decide how hot, cold, wet, or windy it might be!

Date:

Astronomy

Nov. 05, 2012 Rise Set
Actual Time 6:40 AM EST 5:05 PM EST
Civil Twilight 6:13 AM EST 5:33 PM EST
Nautical Twilight 5:41 AM EST 6:04 PM EST
Astronomical Twilight 5:10 AM EST 6:35 PM EST
Moon 10:40 PM EST (11/5) 11:59 AM EST (11/5)
Length of Visible Light 11h 19m
Length of Day
10h 24m
Waning Gibbous, 63% of the Moon is Illuminated
Nov 5
Waning Gibbous
Nov 6
Last Quarter
Nov 13
New
Nov 20
First Quarter
Nov 28
Full

Hourly Weather History & Observations

Time (EST) Temp. Windchill Dew Point Humidity Pressure Visibility Wind Dir Wind Speed Gust Speed Precip Events Conditions
12:15 AM 34.9 °F - 2.5 °F 26% 30.11 in 10.0 mi Calm Calm - N/A   Mostly Cloudy
12:35 AM 32.5 °F - 12.7 °F 44% 30.11 in 10.0 mi Calm Calm - N/A   Mostly Cloudy
12:55 AM 32.9 °F - - N/A% 30.11 in 10.0 mi Calm Calm - N/A   Overcast
1:15 AM 33.4 °F 30.4 °F 8.6 °F 35% 30.10 in 10.0 mi NW 3.5 mph - N/A   Mostly Cloudy
1:35 AM 32.7 °F 29.6 °F 10.0 °F 39% 30.10 in 10.0 mi WNW 3.5 mph - N/A   Mostly Cloudy
1:55 AM 32.0 °F - - N/A% 30.10 in 10.0 mi Calm Calm - N/A   Scattered Clouds
2:15 AM 30.7 °F 27.3 °F - N/A% 30.10 in 7.0 mi NW 3.5 mph - N/A   Clear
2:35 AM 29.8 °F 24.9 °F - N/A% 30.10 in 10.0 mi NW 4.6 mph - N/A   Clear
2:55 AM 31.1 °F 25.4 °F 14.0 °F 49% 30.10 in 10.0 mi NW 5.8 mph - N/A   Clear
3:15 AM 30.7 °F 24.1 °F 18.1 °F 60% 30.10 in 10.0 mi NW 6.9 mph - N/A   Clear
3:35 AM 32.0 °F 25.6 °F 8.8 °F 38% 30.10 in 10.0 mi WNW 6.9 mph - N/A   Scattered Clouds
3:55 AM 33.1 °F 26.1 °F 2.7 °F 28% 30.10 in 10.0 mi NW 8.1 mph - N/A   Mostly Cloudy
4:15 AM 34.7 °F 29.6 °F -0.6 °F 22% 30.10 in 10.0 mi WNW 5.8 mph - N/A   Overcast
4:35 AM 35.6 °F 30.7 °F -3.1 °F 19% 30.11 in 10.0 mi WNW 5.8 mph - N/A   Overcast
4:55 AM 36.3 °F 31.6 °F -4.9 °F 17% 30.11 in 10.0 mi NW 5.8 mph - N/A   Overcast
5:15 AM 36.5 °F 32.7 °F -5.1 °F 17% 30.12 in 10.0 mi WNW 4.6 mph - N/A   Overcast
5:35 AM 37.0 °F 33.3 °F -7.4 °F 15% 30.12 in 10.0 mi WNW 4.6 mph - N/A   Overcast
5:55 AM 37.4 °F 32.1 °F -11.0 °F 12% 30.12 in 10.0 mi NW 6.9 mph - N/A   Overcast
6:15 AM 37.4 °F 32.1 °F -8.9 °F 14% 30.13 in 10.0 mi NW 6.9 mph - N/A   Overcast
6:35 AM 37.2 °F 31.2 °F -9.6 °F 13% 30.13 in 10.0 mi NNW 8.1 mph - N/A   Overcast
6:55 AM 37.9 °F 32.7 °F -17.7 °F 9% 30.13 in 10.0 mi NNW 6.9 mph - N/A   Overcast
7:15 AM 37.6 °F 33.1 °F -17.5 °F 9% 30.14 in 10.0 mi NNW 5.8 mph - N/A   Mostly Cloudy
7:35 AM 38.3 °F 32.5 °F -26.7 °F 5% 30.15 in 10.0 mi NNW 8.1 mph - N/A   Scattered Clouds
7:55 AM 39.7 °F 35.6 °F -29.2 °F 5% 30.15 in 10.0 mi NNW 5.8 mph - N/A   Scattered Clouds
8:15 AM 40.5 °F 34.6 °F - N/A% 30.15 in 10.0 mi NNW 9.2 mph - N/A   Scattered Clouds
8:35 AM 41.4 °F 35.7 °F - N/A% 30.15 in 10.0 mi North 9.2 mph - N/A   Mostly Cloudy
8:55 AM 41.5 °F 35.4 °F - N/A% 30.15 in 10.0 mi North 10.4 mph 23.0 mph N/A   Scattered Clouds
9:15 AM 42.8 °F 35.1 °F - N/A% 30.15 in 10.0 mi NNW 16.1 mph 23.0 mph N/A   Scattered Clouds
9:35 AM 43.9 °F 36.2 °F - N/A% 30.16 in 10.0 mi NNW 17.3 mph 25.3 mph N/A   Scattered Clouds
9:55 AM 44.8 °F 39.9 °F - N/A% 30.16 in 10.0 mi North 9.2 mph 21.9 mph N/A   Scattered Clouds
10:15 AM 44.6 °F 37.4 °F - N/A% 30.16 in 10.0 mi North 16.1 mph 19.6 mph N/A   Scattered Clouds
10:35 AM 45.1 °F 39.1 °F - N/A% 30.16 in 10.0 mi North 12.7 mph 26.5 mph N/A   Scattered Clouds
10:55 AM 46.8 °F - - N/A% 30.15 in 10.0 mi NNW 12.7 mph 20.7 mph N/A   Clear
11:15 AM 46.6 °F - - N/A% 30.16 in 10.0 mi NNW 8.1 mph - N/A   Clear
11:35 AM 47.3 °F - - N/A% 30.15 in 10.0 mi NW 12.7 mph 17.3 mph N/A   Clear
11:55 AM 47.3 °F - - N/A% 30.14 in 10.0 mi North 9.2 mph - N/A   Clear
12:15 PM 48.7 °F - - N/A% 30.13 in 10.0 mi NNW 15.0 mph 20.7 mph N/A   Clear
12:35 PM 48.6 °F - - N/A% 30.13 in 10.0 mi NW 12.7 mph 16.1 mph N/A   Clear
12:55 PM 48.9 °F - - N/A% 30.13 in 10.0 mi NW 8.1 mph 16.1 mph N/A   Clear
1:15 PM 49.3 °F - - N/A% 30.12 in 10.0 mi NW 12.7 mph 17.3 mph N/A   Clear
1:35 PM 49.8 °F - - N/A% 30.11 in 10.0 mi North 10.4 mph 16.1 mph N/A   Clear
1:55 PM 50.0 °F - - N/A% 30.11 in 10.0 mi North 10.4 mph - N/A   Clear
2:15 PM 50.4 °F - - N/A% 30.10 in 10.0 mi North 6.9 mph 20.7 mph N/A   Clear
2:35 PM 50.4 °F - - N/A% 30.10 in 10.0 mi NW 10.4 mph - N/A   Clear
2:55 PM - - - N/A% - - North - - N/A   Unknown
3:15 PM 51.4 °F - 28.9 °F 42% 30.10 in 10.0 mi North 6.9 mph - N/A   Clear
3:35 PM 50.0 °F - 28.4 °F 43% 30.10 in 10.0 mi North 6.9 mph - N/A   Clear
3:55 PM 49.6 °F - 28.4 °F 44% 30.10 in 10.0 mi NNW 9.2 mph - N/A   Clear
4:15 PM 49.1 °F - 28.0 °F 44% 30.11 in 10.0 mi North 3.5 mph - N/A   Clear
4:35 PM 48.2 °F - 28.2 °F 46% 30.12 in 10.0 mi NNE 4.6 mph - N/A   Clear
4:55 PM 46.9 °F - 28.4 °F 49% 30.12 in 10.0 mi North 4.6 mph - N/A   Clear
5:15 PM 46.2 °F 45.0 °F 28.2 °F 50% 30.13 in 10.0 mi NNW 3.5 mph - N/A   Clear
5:35 PM 45.5 °F 43.2 °F 28.4 °F 51% 30.13 in 10.0 mi North 4.6 mph - N/A   Clear
5:55 PM 43.3 °F 40.7 °F 28.8 °F 56% 30.14 in 10.0 mi North 4.6 mph - N/A   Clear
6:15 PM 40.8 °F - 30.7 °F 67% 30.15 in 10.0 mi Calm Calm - N/A   Clear
6:35 PM 36.9 °F 34.3 °F 30.2 °F 77% 30.16 in 10.0 mi North 3.5 mph - N/A   Clear
6:55 PM 41.2 °F 38.2 °F 29.7 °F 64% 30.16 in 10.0 mi North 4.6 mph - N/A   Clear
7:15 PM 39.6 °F 37.4 °F 29.1 °F 66% 30.17 in 10.0 mi NNE 3.5 mph - N/A   Clear
7:35 PM 37.8 °F 35.3 °F 29.3 °F 72% 30.17 in 10.0 mi North 3.5 mph - N/A   Clear
7:55 PM 34.5 °F 31.6 °F 29.3 °F 81% 30.18 in 10.0 mi North 3.5 mph - N/A   Clear
8:15 PM 32.2 °F 28.9 °F 29.1 °F 88% 30.19 in 10.0 mi WNW 3.5 mph - N/A   Clear
8:35 PM 33.1 °F 30.0 °F 29.1 °F 85% 30.20 in 10.0 mi NW 3.5 mph - N/A   Clear
8:55 PM 30.9 °F 26.2 °F 28.2 °F 90% 30.21 in 10.0 mi North 4.6 mph - N/A   Clear
9:15 PM 30.9 °F 26.2 °F 28.8 °F 92% 30.22 in 10.0 mi North 4.6 mph - N/A   Clear
9:35 PM 35.6 °F 30.7 °F 28.8 °F 76% 30.22 in 10.0 mi North 5.8 mph - N/A   Clear
9:55 PM 37.0 °F 31.0 °F 28.9 °F 73% 30.22 in 10.0 mi North 8.1 mph - N/A   Clear
10:15 PM 37.2 °F 33.6 °F 28.9 °F 72% 30.22 in 10.0 mi North 4.6 mph - N/A   Clear
10:35 PM 35.4 °F - 28.4 °F 76% 30.22 in 10.0 mi Calm Calm - N/A   Clear
10:55 PM 30.0 °F - 28.2 °F 93% 30.22 in 10.0 mi Calm Calm - N/A   Clear
11:15 PM 31.5 °F 28.1 °F 28.4 °F 88% 30.22 in 10.0 mi North 3.5 mph - N/A   Clear
11:35 PM 30.6 °F 25.8 °F 28.0 °F 90% 30.21 in 10.0 mi North 4.6 mph - N/A   Clear
11:55 PM 34.7 °F 31.8 °F 28.2 °F 77% 30.22 in 10.0 mi NNE 3.5 mph - N/A   Clear